Weather History for KSMQ - November, 2012

Change the Weather History Date:

Tuesday, November 20, 2012

  Actual Average Record
Temperature  
Mean Temperature 40 °F -  
Max Temperature 52 °F 50 °F 75 °F (1934)
Min Temperature 28 °F 30 °F 16 °F (2000)
Degree Days  
Heating Degree Days 25    
Moisture  
Dew Point 30 °F    
Average Humidity 75    
Maximum Humidity 96    
Minimum Humidity 43    
Precipitation  
Precipitation 0.00 in - - ()
Sea Level Pressure  
Sea Level Pressure 30.16 in    
Wind  
Wind Speed 2 mph (North)    
Max Wind Speed 7 mph    
Max Gust Speed -    
Visibility 10 miles    
Events      
Averages and records for this station are not official NWS values.
T = Trace of Precipitation, MM = Missing Value Source: NWS Daily Summary

Daily Weather History Graph

Daily Weather History Graph

Search for Another Location

Airport or City:

Trip Planner

Search our weather history database for the weather conditions in past years. The results will help you decide how hot, cold, wet, or windy it might be!

Date:

Astronomy

Nov. 20, 2012 Rise Set
Actual Time 6:51 AM EST 4:36 PM EST
Civil Twilight 6:21 AM EST 5:06 PM EST
Nautical Twilight 5:48 AM EST 5:39 PM EST
Astronomical Twilight 5:15 AM EST 6:12 PM EST
Moon 12:23 PM EST (11/20) No Moon Set
Length of Visible Light 10h 44m
Length of Day
9h 45m
Waxing Crescent, 51% of the Moon is Illuminated
Nov 20
Waxing Crescent
Nov 28
Full
Dec 6
Last Quarter
Dec 13
New
Dec 20
First Quarter

Hourly Weather History & Observations

Time (EST) Temp. Windchill Dew Point Humidity Pressure Visibility Wind Dir Wind Speed Gust Speed Precip Events Conditions
12:53 AM 34.0 °F - 30.9 °F 89% 30.23 in 10.0 mi Calm Calm - N/A   Clear
1:53 AM 32.0 °F - 30.0 °F 92% 30.22 in 10.0 mi Calm Calm - N/A   Clear
2:53 AM 30.9 °F 27.5 °F 28.9 °F 92% 30.21 in 10.0 mi NW 3.5 mph - N/A   Clear
3:53 AM 30.0 °F 26.5 °F 28.0 °F 92% 30.20 in 9.0 mi NNW 3.5 mph - N/A   Clear
4:53 AM 28.0 °F 24.2 °F 27.0 °F 96% 30.20 in 10.0 mi WNW 3.5 mph - N/A   Clear
5:53 AM 28.0 °F 24.2 °F 27.0 °F 96% 30.20 in 10.0 mi WNW 3.5 mph - N/A   Clear
6:53 AM 28.0 °F 24.2 °F 26.1 °F 92% 30.20 in 9.0 mi WNW 3.5 mph - N/A   Clear
7:53 AM 30.9 °F - 28.9 °F 92% 30.19 in 10.0 mi Calm Calm - N/A   Clear
8:53 AM 36.0 °F 33.3 °F 32.0 °F 86% 30.19 in 10.0 mi NNW 3.5 mph - N/A   Clear
9:53 AM 43.0 °F 41.3 °F 33.1 °F 68% 30.20 in 10.0 mi North 3.5 mph - N/A   Clear
10:53 AM 48.0 °F - 32.0 °F 54% 30.17 in 10.0 mi Calm Calm - N/A   Clear
11:53 AM 50.0 °F - 30.9 °F 48% 30.14 in 10.0 mi Variable 4.6 mph - N/A   Clear
12:53 PM 51.1 °F - 30.0 °F 44% 30.13 in 10.0 mi ESE 3.5 mph - N/A   Clear
1:53 PM 52.0 °F - 30.0 °F 43% 30.11 in 10.0 mi NE 6.9 mph - N/A   Clear
2:53 PM 50.0 °F - 30.0 °F 46% 30.11 in 10.0 mi East 3.5 mph - N/A   Clear
3:53 PM 50.0 °F - 28.9 °F 44% 30.11 in 10.0 mi East 3.5 mph - N/A   Clear
4:53 PM 45.0 °F - 30.9 °F 58% 30.12 in 10.0 mi Calm Calm - N/A   Clear
5:53 PM 42.1 °F - 32.0 °F 67% 30.12 in 10.0 mi Calm Calm - N/A   Clear
6:53 PM 37.9 °F - 30.9 °F 76% 30.14 in 10.0 mi Calm Calm - N/A   Clear
7:53 PM 36.0 °F - 30.9 °F 82% 30.13 in 10.0 mi Calm Calm - N/A   Clear
8:53 PM 37.0 °F - 32.0 °F 82% 30.14 in 10.0 mi Calm Calm - N/A   Clear
9:53 PM 36.0 °F - 30.9 °F 82% 30.14 in 10.0 mi Calm Calm - N/A   Clear
10:53 PM 35.1 °F - 30.9 °F 85% 30.14 in 10.0 mi Calm Calm - N/A   Clear
11:53 PM 34.0 °F - 30.9 °F 89% 30.14 in 10.0 mi Calm Calm - N/A   Clear